Montevideo, MN

12:10 AM CDT on July 28, 2017 (GMT -0500)
Montevideo-Chippewa County

Weather History for KMVE - March, 2014

Change the Weather History Date:

Wednesday, March 12, 2014

  Actual Average Record
Temperature  
Mean Temperature 26 °F -  
Max Temperature 30 °F 38 °F 71 °F (2016)
Min Temperature 23 °F 20 °F -11 °F (1960)
Degree Days  
Heating Degree Days 38    
Moisture  
Dew Point 20 °F    
Average Humidity 75    
Maximum Humidity 93    
Minimum Humidity 59    
Precipitation  
Precipitation 0.00 in - - ()
Sea Level Pressure  
Sea Level Pressure 30.10 in    
Wind  
Wind Speed 8 mph (NNW)    
Max Wind Speed 16 mph    
Max Gust Speed -    
Visibility 10 miles    
Events Snow    
Averages and records for this station are not official NWS values.
T = Trace of Precipitation, MM = Missing Value Source: NWS Daily Summary

Daily Weather History Graph

Daily Weather History Graph

Search for Another Location

Airport or City:

Trip Planner

Search our weather history database for the weather conditions in past years. The results will help you decide how hot, cold, wet, or windy it might be!

Date:

Astronomy

Mar. 12, 2014 Rise Set
Actual Time 7:40 AM CDT 7:25 PM CDT
Civil Twilight 7:11 AM CDT 7:54 PM CDT
Nautical Twilight 6:37 AM CDT 8:28 PM CDT
Astronomical Twilight 6:03 AM CDT 9:02 PM CDT
Moon 3:49 PM CDT (3/12) 5:21 AM CDT (3/12)
Length of Visible Light 12h 42m
Length of Day
11h 44m
Waxing Gibbous, 85% of the Moon is Illuminated
Mar 12
Waxing Gibbous
Mar 16
Full
Mar 23
Last Quarter
Mar 30
New
Apr 7
First Quarter

Hourly Weather History & Observations

Time (CDT) Temp. Windchill Dew Point Humidity Pressure Visibility Wind Dir Wind Speed Gust Speed Precip Events Conditions
12:14 AM 26.6 °F 14.3 °F 19.4 °F 74% 30.14 in 10.0 mi NNE 16.1 mph - N/A   Clear
12:33 AM 26.6 °F 14.7 °F 19.4 °F 74% 30.15 in 10.0 mi NNE 15.0 mph - N/A   Clear
12:54 AM 26.6 °F 15.7 °F 19.4 °F 74% 30.14 in 10.0 mi NNE 12.7 mph - N/A   Clear
1:14 AM 24.8 °F 13.4 °F 19.4 °F 80% 30.13 in 10.0 mi NNE 12.7 mph - N/A   Clear
1:33 AM 24.8 °F 14.0 °F 19.4 °F 80% 30.13 in 10.0 mi North 11.5 mph - N/A   Clear
1:54 AM 24.8 °F 14.6 °F 19.4 °F 80% 30.14 in 10.0 mi North 10.4 mph - N/A   Clear
2:14 AM 24.8 °F 14.6 °F 19.4 °F 80% 30.14 in 10.0 mi North 10.4 mph - N/A   Clear
2:34 AM 24.8 °F 14.6 °F 19.4 °F 80% 30.14 in 10.0 mi North 10.4 mph - N/A   Clear
2:54 AM 24.8 °F 15.3 °F 19.4 °F 80% 30.14 in 10.0 mi North 9.2 mph - N/A   Scattered Clouds
3:14 AM 24.8 °F 16.9 °F 19.4 °F 80% 30.14 in 10.0 mi North 6.9 mph - N/A   Mostly Cloudy
3:34 AM 24.8 °F 15.3 °F 19.4 °F 80% 30.14 in 10.0 mi North 9.2 mph - N/A   Mostly Cloudy
3:54 AM 23.0 °F 13.1 °F 19.4 °F 86% 30.13 in 10.0 mi North 9.2 mph - N/A   Mostly Cloudy
4:14 AM 23.0 °F 13.1 °F 17.6 °F 80% 30.13 in 10.0 mi North 9.2 mph - N/A   Overcast
4:34 AM 24.8 °F 17.9 °F 17.6 °F 74% 30.12 in 10.0 mi North 5.8 mph - N/A   Overcast
4:54 AM 24.8 °F 16.1 °F 17.6 °F 74% 30.12 in 10.0 mi NNE 8.1 mph - N/A   Overcast
5:14 AM 24.8 °F 16.9 °F 17.6 °F 74% 30.12 in 10.0 mi NNE 6.9 mph - N/A   Overcast
5:34 AM 24.8 °F 14.6 °F 17.6 °F 74% 30.13 in 10.0 mi NNE 10.4 mph - N/A   Overcast
5:54 AM 24.8 °F 15.3 °F 17.6 °F 74% 30.14 in 10.0 mi North 9.2 mph - N/A   Overcast
6:14 AM 24.8 °F 15.3 °F 17.6 °F 74% 30.14 in 10.0 mi NNE 9.2 mph - N/A   Overcast
6:34 AM 24.8 °F 16.1 °F 15.8 °F 69% 30.14 in 10.0 mi NNE 8.1 mph - N/A   Overcast
6:54 AM 23.0 °F 14.7 °F 15.8 °F 74% 30.14 in 10.0 mi NNE 6.9 mph - N/A   Overcast
7:14 AM 23.0 °F 14.7 °F 15.8 °F 74% 30.15 in 10.0 mi NNE 6.9 mph - N/A   Overcast
7:34 AM 23.0 °F 17.0 °F 15.8 °F 74% 30.15 in 10.0 mi North 4.6 mph - N/A   Overcast
7:54 AM 24.8 °F 16.9 °F 15.8 °F 69% 30.16 in 10.0 mi NNE 6.9 mph - N/A   Overcast
8:14 AM 23.0 °F 17.0 °F 15.8 °F 74% 30.16 in 10.0 mi North 4.6 mph - N/A Snow Light Snow
8:34 AM 24.8 °F 17.9 °F 15.8 °F 69% 30.16 in 10.0 mi NNE 5.8 mph - N/A   Overcast
8:54 AM 24.8 °F 20.5 °F 15.8 °F 69% 30.15 in 10.0 mi NNE 3.5 mph - N/A   Overcast
9:14 AM 24.8 °F 19.1 °F 15.8 °F 69% 30.15 in 10.0 mi NE 4.6 mph - N/A   Overcast
9:34 AM 24.8 °F 20.5 °F 14.0 °F 64% 30.15 in 10.0 mi NE 3.5 mph - N/A   Overcast
9:54 AM 24.8 °F - 14.0 °F 64% 30.15 in 10.0 mi Calm Calm - N/A   Overcast
10:14 AM 26.6 °F - 15.8 °F 64% 30.15 in 10.0 mi Calm Calm - N/A   Overcast
10:34 AM 26.6 °F - 17.6 °F 69% 30.15 in 10.0 mi Calm Calm - N/A   Overcast
10:54 AM 28.4 °F - 17.6 °F 64% 30.15 in 10.0 mi Calm Calm - N/A   Overcast
11:14 AM 26.6 °F - 15.8 °F 64% 30.15 in 10.0 mi Calm Calm - N/A   Overcast
11:34 AM 28.4 °F - 17.6 °F 64% 30.15 in 10.0 mi Calm Calm - N/A   Overcast
11:54 AM 28.4 °F - 15.8 °F 59% 30.15 in 10.0 mi Calm Calm - N/A   Overcast
12:14 PM 28.4 °F - 17.6 °F 64% 30.14 in 10.0 mi Calm Calm - N/A   Overcast
12:34 PM 28.4 °F 24.6 °F 15.8 °F 59% 30.15 in 10.0 mi East 3.5 mph - N/A   Overcast
12:54 PM 28.4 °F - 15.8 °F 59% 30.15 in 10.0 mi Calm Calm - N/A   Overcast
1:14 PM 28.4 °F - 17.6 °F 64% 30.15 in 10.0 mi Calm Calm - N/A   Overcast
1:34 PM 28.4 °F - 15.8 °F 59% 30.14 in 10.0 mi Calm Calm - N/A   Overcast
1:54 PM 30.2 °F - 17.6 °F 60% 30.14 in 10.0 mi Calm Calm - N/A   Overcast
2:14 PM 30.2 °F - 17.6 °F 60% 30.13 in 10.0 mi Calm Calm - N/A   Overcast
2:34 PM 30.2 °F 25.4 °F 19.4 °F 64% 30.13 in 10.0 mi WNW 4.6 mph - N/A   Overcast
2:54 PM 30.2 °F - 19.4 °F 64% 30.12 in 10.0 mi Calm Calm - N/A   Overcast
3:14 PM 30.2 °F 24.3 °F 19.4 °F 64% 30.11 in 10.0 mi SW 5.8 mph - N/A   Overcast
3:34 PM 30.2 °F 24.3 °F 21.2 °F 69% 30.09 in 10.0 mi WSW 5.8 mph - N/A   Overcast
3:54 PM 30.2 °F 23.4 °F 21.2 °F 69% 30.08 in 10.0 mi WSW 6.9 mph - N/A   Overcast
4:14 PM 30.2 °F 24.3 °F 21.2 °F 69% 30.08 in 10.0 mi WSW 5.8 mph - N/A   Overcast
4:34 PM 30.2 °F 24.3 °F 23.0 °F 75% 30.08 in 10.0 mi SW 5.8 mph - N/A   Overcast
4:54 PM 30.2 °F 25.4 °F 21.2 °F 69% 30.07 in 10.0 mi SW 4.6 mph - N/A   Overcast
5:14 PM 30.2 °F 25.4 °F 23.0 °F 75% 30.07 in 10.0 mi SW 4.6 mph - N/A   Overcast
5:34 PM 30.2 °F 22.6 °F 24.8 °F 80% 30.07 in 10.0 mi WSW 8.1 mph - N/A   Overcast
5:54 PM 30.2 °F 24.3 °F 24.8 °F 80% 30.06 in 10.0 mi SW 5.8 mph - N/A   Overcast
6:14 PM 30.2 °F 25.4 °F 24.8 °F 80% 30.06 in 10.0 mi SSW 4.6 mph - N/A   Mostly Cloudy
6:34 PM 30.2 °F 23.4 °F 24.8 °F 80% 30.06 in 10.0 mi SSW 6.9 mph - N/A   Mostly Cloudy
6:53 PM 30.2 °F 24.3 °F 24.8 °F 80% 30.07 in 10.0 mi SSW 5.8 mph - N/A   Overcast
7:14 PM 30.2 °F 24.3 °F 24.8 °F 80% 30.06 in 10.0 mi South 5.8 mph - N/A   Overcast
7:34 PM 30.2 °F 22.6 °F 26.6 °F 86% 30.05 in 10.0 mi South 8.1 mph - N/A   Overcast
7:54 PM 28.4 °F 19.7 °F 26.6 °F 93% 30.04 in 10.0 mi South 9.2 mph - N/A   Overcast
8:14 PM 28.4 °F 19.7 °F 26.6 °F 93% 30.04 in 10.0 mi South 9.2 mph - N/A   Overcast
8:34 PM 28.4 °F 20.4 °F 26.6 °F 93% 30.03 in 10.0 mi South 8.1 mph - N/A   Overcast
8:54 PM 28.4 °F 20.4 °F 26.6 °F 93% 30.02 in 10.0 mi South 8.1 mph - N/A   Overcast
9:14 PM 30.2 °F 21.9 °F 26.6 °F 86% 30.01 in 10.0 mi South 9.2 mph - N/A   Overcast
9:34 PM 28.4 °F 19.7 °F 26.6 °F 93% 30.01 in 10.0 mi South 9.2 mph - N/A   Overcast
9:54 PM 28.4 °F 20.4 °F 26.6 °F 93% 30.01 in 10.0 mi South 8.1 mph - N/A   Overcast
10:14 PM 28.4 °F 21.2 °F 26.6 °F 93% 30.01 in 10.0 mi South 6.9 mph - N/A   Overcast
10:34 PM 30.2 °F 22.6 °F 26.6 °F 86% 30.00 in 10.0 mi South 8.1 mph - N/A   Overcast
10:54 PM 30.2 °F 21.3 °F 28.4 °F 93% 29.98 in 10.0 mi SSW 10.4 mph - N/A   Overcast
11:14 PM 30.2 °F 21.3 °F 28.4 °F 93% 29.98 in 10.0 mi SSW 10.4 mph - N/A   Overcast
11:34 PM 30.2 °F 21.9 °F 28.4 °F 93% 29.97 in 10.0 mi SSW 9.2 mph - N/A   Overcast
11:54 PM 30.2 °F 20.8 °F 28.4 °F 93% 29.95 in 10.0 mi SSW 11.5 mph - N/A   Overcast